Página principal
METAR-TAF:

METAR-TAF

Aeroportos :

Tambacounda, Senegal

latitude: 13-46N, longitude: 013-41W, altura: 49 m

Observação actual do tempo

O boletim foi feito há 3 horas e 13 minutos, às 02:30 UTC
Vento 6 kt de sudoeste
Temperatura 30°C
Humidade 66%
Pressão 1010 hPa
Visibilidade 10 km ou mais
sem nuvens abaixo de 1500 metros e sem cumulonimbus

METAR: GOTT 230230Z 22006KT CAVOK 30/23 Q1010

Hora: 05:43 (05:43 UTC)


TAF: em falta

Observações e previsões do tempo de mais de 4000 aeroportos (mensagens METAR e TAF).

As estações disponíveis são os pontos amarelos e vermelhos sobre o mapa.

Mova o rato sobre o mapa para ver o nome da estação.

Depois clique no ponto para visualizar as observações e previsões meteorológicas.

Para alterar o mapa : clique nos botões verdes com uma cruz preta para aumentar o zoom; no botão verde com uma pitada de zoom; ou nas setas verdes para mapas adjacentes.


METAR-TAF: